ADT,Max TemperatureF,Mean TemperatureF,Min TemperatureF,Max Dew PointF,MeanDew PointF,Min DewpointF,Max Humidity, Mean Humidity, Min Humidity, Max Sea Level PressureIn, Mean Sea Level PressureIn, Min Sea Level PressureIn, Max VisibilityMiles, Mean VisibilityMiles, Min VisibilityMiles, Max Wind SpeedMPH, Mean Wind SpeedMPH, Max Gust SpeedMPH,PrecipitationIn, CloudCover, Events, WindDirDegrees
2013-7-1,41,34,28,,,,,,,29.93,29.87,29.79,,,,25,14,,0.00,1,Snow,335
2013-7-2,41,36,30,,,,,,,29.80,29.34,29.06,,,,41,21,40,0.00,3,Rain-Snow,232
2013-7-3,33,32,30,,,,,,,29.44,29.23,29.11,,,,37,19,44,0.00,4,Snow,308
2013-7-4,35,32,30,,,,,,,29.76,29.52,29.35,,,,36,20,38,0.00,4,Snow,45
2013-7-5,32,30,28,,,,,,,29.81,29.69,29.62,,,,12,6,,0.00,4,,139
2013-7-6,30,29,28,,,,,,,29.80,29.59,29.46,,,,25,14,28,0.00,0,,160
2013-7-7,30,29,28,,,,,,,29.62,29.48,29.44,,,,45,18,51,0.00,0,,59
2013-7-8,32,30,28,,,,,,,29.96,29.70,29.51,,,,45,35,51,0.00,0,Snow,31
2013-7-9,42,36,32,,,,,,,30.00,29.94,29.83,,,,25,17,31,0.00,1,Snow,17
2013-7-10,50,44,37,,,,,,,29.93,29.84,29.76,,,,21,9,,0.00,1,,211
2013-7-11,39,36,32,,,,,,,29.77,29.44,29.02,,,,39,26,46,0.00,2,Rain-Snow,123
2013-7-12,35,32,28,,,,,,,29.39,29.13,28.97,,,,26,16,31,0.00,4,Rain-Snow,350
2013-7-13,34,31,28,,,,,,,29.91,29.64,29.29,,,,34,23,40,0.00,1,Snow,23
2013-7-14,44,37,30,,,,,,,29.90,29.78,29.71,,,,36,10,,0.00,5,Rain,248
2013-7-15,46,42,37,,,,,,,30.00,29.85,29.69,,,,40,14,22,0.00,5,Rain,18
2013-7-16,51,46,41,,,,,,,30.13,30.07,29.99,,,,21,15,23,0.00,0,,4
2013-7-17,48,44,37,,,,,,,30.06,29.83,29.68,,,,14,9,,0.00,0,,189
2013-7-18,35,32,28,,,,,,,29.69,29.58,29.53,,,,30,17,,0.00,0,Snow,60
2013-7-19,32,30,29,,,,,,,29.80,29.68,29.54,,,,30,19,25,0.00,1,Snow,100
2013-7-20,35,34,32,,,,,,,29.78,29.66,29.57,,,,30,21,36,0.00,1,Rain-Snow,126
2013-7-21,37,34,32,,,,,,,29.69,29.62,29.49,,,,40,25,46,0.00,0,Rain-Snow,94
2013-7-22,37,34,32,,,,,,,29.80,29.58,29.42,,,,45,35,54,0.00,0,Rain-Snow,80
2013-7-23,32,31,30,,,,,,,30.01,29.83,29.68,,,,29,25,32,0.00,0,Rain-Snow,49
2013-7-24,33,32,30,,,,,,,30.03,29.93,29.85,,,,29,23,29,0.00,0,Snow,43
2013-7-25,39,36,32,,,,,,,29.97,29.80,29.68,,,,40,31,47,0.00,0,Rain-Snow,29
2013-7-26,55,47,39,,,,,,,30.05,29.93,29.78,,,,24,15,30,0.00,5,Rain,317
2013-7-27,64,57,50,,,,,,,30.10,30.05,29.96,,,,17,10,17,0.00,4,,296
2013-7-28,60,53,46,,,,,,,30.23,30.16,30.06,,,,16,10,,0.00,0,,315
2013-7-29,60,53,46,,,,,,,30.22,30.17,30.10,,,,14,10,,0.00,0,,224
2013-7-30,53,46,39,,,,,,,30.09,29.86,29.68,,,,16,13,17,0.00,2,Rain,188
2013-7-31,57,49,41,,,,,,,29.97,29.83,29.68,,,,16,12,,0.00,0,,248